Location: Corralito
(10.2667°N, 66.9500°W)
Time: 00:02:01
(UTC+00:00)

Cosmos 1331 Rocket - Visible Passes

Search period start: 05 December 2023 00:00
Search period end: 15 December 2023 00:00
Orbit: 747 x 776 km, 74.0° (Epoch: 04 December)

Date Brightness Start Highest point End Pass type
(mag) Time Alt. Az. Time Alt. Az. Time Alt. Az.
05 Dec 4.1 22:59:25 10° S 23:04:33 55° ESE 23:08:59 14° NNE visible
06 Dec 6.7 09:45:40 10° NE 09:48:34 15° ENE 09:51:27 10° ESE visible
06 Dec 5.1 22:21:30 10° SSE 22:25:49 26° E 22:30:08 10° NE visible
07 Dec 6.4 00:03:47 10° WSW 00:07:30 19° WNW 00:11:13 10° NNW visible
07 Dec 5.3 23:23:42 10° SW 23:28:37 40° WNW 23:33:33 10° N visible
08 Dec 4.8 10:07:42 10° N 10:12:44 54° ENE 10:17:44 10° SSE visible
08 Dec 4.1 22:44:31 10° SSW 22:49:48 87° WNW 22:55:05 10° NNE visible
09 Dec 6.1 09:29:41 10° NNE 09:33:53 25° ENE 09:38:04 10° SE visible
09 Dec 6.9 23:51:17 10° W 23:52:50 11° WNW 23:54:24 10° NW visible
10 Dec 6.8 08:53:16 10° NE 08:54:57 12° ENE 08:56:39 10° E visible
10 Dec 6.2 23:09:41 10° SW 23:13:54 24° WNW 23:18:09 10° NNW visible
11 Dec 4.0 09:52:49 10° NNW 09:57:59 88° WSW 10:03:07 10° SSE visible
11 Dec 5.0 22:29:57 10° SSW 22:35:03 51° WNW 22:40:11 10° N visible
12 Dec 5.1 09:14:19 10° N 09:19:09 42° ENE 09:23:59 10° SSE visible
13 Dec 6.3 08:36:34 10° NNE 08:40:16 20° ENE 08:43:58 10° ESE visible
13 Dec 6.7 22:56:23 10° WSW 22:59:14 15° WNW 23:02:05 10° NW visible
14 Dec 4.1 09:38:34 12° NNW 09:43:11 51° WSW 09:48:09 10° S visible
